[[{"header":{"parameterUnit":"m.s-1","parameterCategory":1,"la1":30.2991,"la2":30.254,"lo1":-89.0895,"lo2":-89.0444,"dy":0.0017,"dx":0.0017,"nx":28,"ny":28,"refTime":"2025-01-18T09:00:00:Z","depth":0,"parameterNumber":2,"parameterNumberName":"U-component_of_WINDS"},"data":[0,0,0,0,0,0,0,0,0,0,0,0,0,0,0,0,0,0,0,0,0,0,0,0,0,0,0,0,0,0,0,0,0,0,0,0,0,0,0,0,0,0,0,0,0,0,0,0,0,0,0,0,0,0,0,0,0,0,4.7994,4.7994,0,4.8024,4.8024,4.8024,4.7954,4.7952,4.795,4.7948,4.7976,4.7979,4.7981,0,0,0,0,0,0,0,0,0,0,0,0,0,4.7877,4.788,4.7994,4.7994,4.7995,4.8024,4.8024,4.8025,4.7955,4.7952,4.7949,4.7947,4.7975,4.7978,4.7982,0,0,0,0,0,0,0,0,0,0,0,0,0,4.792,4.7881,4.7994,4.7964,4.7961,4.8024,4.8024,4.8025,4.7955,4.7952,4.7949,4.7945,4.7974,4.7978,4.7982,4.8075,0,0,4.7995,4.7997,0,0,0,0,0,0,0,0,4.7917,4.7924,4.7968,4.7966,4.7963,4.7982,4.7993,4.8041,4.7956,4.7957,4.7948,4.7944,4.7981,4.7984,4.7997,4.8076,4.8078,4.7995,4.7998,4.8,4.8001,0,0,0,0,0,0,0,4.7914,4.7922,4.8006,4.7968,4.7966,4.7949,4.7951,4.8002,4.7987,4.7957,4.7952,4.7957,4.7979,4.7993,4.7997,4.8078,4.7995,4.7999,4.8002,4.8003,4.8239,4.8243,0,0,0,0,0,0,4.7916,4.792,4.8005,4.8007,4.7932,4.7953,4.7956,4.7979,4.7986,4.7984,4.7959,4.7953,4.7987,4.7992,4.7998,4.8109,4.8,4.8004,4.8006,4.8235,4.824,4.8244,0,0,0,0,0,0,4.7913,4.7924,4.8004,4.7962,4.7971,4.7959,4.7986,4.7982,4.7996,4.7988,4.7985,4.7977,4.7985,4.7992,4.8057,4.8109,4.8006,4.801,4.8231,4.8237,4.8242,4.8331,0,0,0,0,0,0,4.791,4.7923,4.7958,4.7964,4.7974,4.8063,4.7989,4.7985,4.8004,4.7996,4.8004,4.8002,4.7983,4.8051,4.8062,4.8113,4.8013,4.8226,4.8233,4.824,4.8324,4.8339,4.8353,0,0,0,0,0,4.7906,4.7981,4.796,4.7971,4.8017,4.8066,4.8072,4.8049,4.8008,4.8043,4.8039,4.8002,4.8102,4.8059,4.8069,4.8123,4.8223,4.8231,4.824,4.8317,4.8336,4.8352,0,0,0,0,0,0,4.798,4.7981,4.7958,4.8036,4.8052,4.8054,4.8097,4.8069,4.8095,4.8087,4.8057,4.8059,4.8131,4.8133,4.8085,4.8215,4.8155,4.8166,4.8211,4.8229,4.8243,4.8241,4.8016,0,0,0,0,0,4.8006,4.8046,4.8044,4.8114,4.8123,4.8109,4.813,4.8111,4.8125,4.8131,4.8132,4.8147,4.8182,4.8205,4.8237,4.8324,4.8326,4.8367,4.8381,4.8393,4.8403,4.8452,4.8471,4.8271,4.8271,4.8271,0,0,4.8058,4.8064,4.809,4.8129,4.8138,4.8181,4.8115,4.8162,4.8194,4.8138,4.8201,4.8202,4.8217,4.8295,4.8329,4.8299,4.8459,4.8404,4.8413,4.8416,4.8462,4.8481,4.8498,4.8277,4.8276,4.8275,0,0,4.8176,4.8184,4.8244,4.8257,4.8273,4.8264,4.8279,4.8286,4.8286,4.8349,4.8309,4.8346,4.8407,4.842,4.8435,4.8563,4.853,4.8574,4.865,4.8698,4.8714,4.8727,4.8775,4.8792,4.8584,4.8584,4.8584,0,4.8239,4.8302,4.8278,4.833,4.8349,4.8303,4.8364,4.8377,4.8403,4.8417,4.8383,4.8461,4.8467,4.8549,4.8581,4.8594,4.8611,4.8573,4.8713,4.8727,4.874,4.8785,4.8802,4.859,4.8589,4.8588,4.8588,0,4.8381,4.8425,4.8472,4.8501,4.8525,4.8581,4.8566,4.8593,4.8574,4.8569,4.8636,4.8643,4.8677,4.8694,4.8675,4.8775,4.8756,4.8718,4.8658,4.8764,4.8806,4.8823,4.8597,4.8595,4.8594,4.8592,0,0,4.8543,4.8561,4.8579,4.8593,4.8609,4.8643,4.8699,4.8733,4.8759,4.8779,4.8825,4.8879,4.8846,4.8863,4.8845,4.8887,4.8992,4.8845,4.8845,4.8873,4.9105,4.9133,4.9154,4.897,4.8974,4.8976,4.9104,0,4.8662,4.8757,4.8739,4.8833,4.8875,4.8834,4.8882,4.8899,4.8897,4.8932,4.8929,4.8969,4.8921,4.8932,4.8972,4.897,4.9038,4.8961,4.9014,4.9016,4.9012,4.9175,4.9205,4.9325,4.912,4.9123,4.9125,0,4.8811,4.884,4.8939,4.8953,4.897,4.9013,4.9046,4.908,4.9099,4.9094,4.9116,4.9091,4.9147,4.9086,4.9164,4.9112,4.9133,4.9136,4.914,4.9144,4.9077,4.9185,4.9362,4.9381,4.915,4.9148,4.9146,0,4.8923,4.8986,4.9054,4.9067,4.9084,4.9116,4.9125,4.914,4.9163,4.9191,4.9206,4.924,4.9259,4.9286,4.9272,4.9229,4.9353,4.9291,4.9352,4.9353,4.938,4.9378,4.9564,4.9392,4.9392,4.9392,4.9391,0,4.9057,4.9119,4.9104,4.9146,4.9216,4.9195,4.9264,4.9268,4.9283,4.9325,4.9291,4.9332,4.931,4.9349,4.9338,4.9406,4.9414,4.9412,4.9409,4.9416,4.9416,4.9429,4.9421,4.9396,4.9395,4.9395,4.9394,0,4.9192,4.9185,4.9256,4.9268,4.9273,4.9324,4.9334,4.9373,4.937,4.9425,4.9436,4.9431,4.9476,4.9464,4.9512,4.9505,4.9591,4.9576,4.9585,4.9582,4.9644,4.9639,4.9845,4.9872,4.9683,4.9684,4.9686,0,4.9278,4.9326,4.9344,4.9371,4.9383,4.9426,4.9451,4.9433,4.946,4.9487,4.9524,4.9567,4.9599,4.9673,4.9674,4.9711,4.9698,4.9768,4.9703,4.971,4.9701,4.9698,4.9704,4.978,4.9782,4.9784,4.9786,0,4.9433,4.9428,4.9465,4.9503,4.9534,4.9562,4.9587,4.9611,4.9595,4.9628,4.9674,4.97,4.9751,4.9794,4.983,4.9838,4.9811,4.9806,4.9823,4.9831,4.9835,4.9835,4.9621,4.9801,4.98,4.9799,4.9798,4.9797,4.9548,4.9589,4.961,4.9653,4.9671,4.9696,4.9735,4.9738,4.9777,4.9818,4.9805,4.9859,4.9879,4.9924,4.9938,4.998,4.9954,4.9977,4.9983,4.9989,4.9998,4.9828,4.9986,4.9986,4.9985,4.9985,4.9985,0,4.9702,4.9714,4.9755,4.9792,4.9827,4.98,4.9827,4.9858,4.9906,4.9928,4.9962,5.0017,5.006,5.0065,5.0105,5.0138,5.0127,5.015,5.0147,5.015,5.0018,5.0001,5.0159,5.0159,5.0159,5.0159,5.0159,5.0158,4.9786,4.9856,4.9855,4.9934,4.9945,4.9999,5.0017,5.0041,5.0058,5.0122,5.0158,5.0162,5.0178,5.022,5.0258,5.0259,5.0276,5.0304,5.03,5.0176,5.0159,5.0143,5.0126,5.0308,5.0308,5.0429,5.043,5.0431]},{"header":{"parameterUnit":"m.s-1","parameterCategory":1,"la1":30.2991,"la2":30.254,"lo1":-89.0895,"lo2":-89.0444,"dy":0.0017,"dx":0.0017,"nx":28,"ny":28,"refTime":"2025-01-18T09:00:00:Z","depth":0,"parameterNumber":3,"parameterNumberName":"V-component_of_WINDS"},"data":[0,0,0,0,0,0,0,0,0,0,0,0,0,0,0,0,0,0,0,0,0,0,0,0,0,0,0,0,0,0,0,0,0,0,0,0,0,0,0,0,0,0,0,0,0,0,0,0,0,0,0,0,0,0,0,0,0,0,-6.3359,-6.3361,0,-6.352,-6.3522,-6.3524,-6.3509,-6.3506,-6.3504,-6.3502,-6.3664,-6.367,-6.3677,0,0,0,0,0,0,0,0,0,0,0,0,0,-6.3037,-6.3043,-6.3359,-6.3361,-6.3363,-6.352,-6.3522,-6.3524,-6.3509,-6.3506,-6.3503,-6.35,-6.3661,-6.3669,-6.3677,0,0,0,0,0,0,0,0,0,0,0,0,0,-6.3185,-6.3045,-6.3358,-6.3374,-6.3377,-6.352,-6.3522,-6.3525,-6.351,-6.3506,-6.3503,-6.3499,-6.3659,-6.3669,-6.3678,-6.3814,0,0,-6.3709,-6.3713,0,0,0,0,0,0,0,0,-6.3177,-6.3197,-6.337,-6.3373,-6.3377,-6.3491,-6.3468,-6.3622,-6.3511,-6.346,-6.3502,-6.3497,-6.3609,-6.3623,-6.3661,-6.3822,-6.3829,-6.371,-6.3716,-6.372,-6.3723,0,0,0,0,0,0,0,-6.3166,-6.319,-6.3422,-6.3372,-6.3377,-6.3373,-6.339,-6.3497,-6.3553,-6.3464,-6.3463,-6.3483,-6.361,-6.3652,-6.3665,-6.3831,-6.3709,-6.3718,-6.3724,-6.3728,-6.4115,-6.4119,0,0,0,0,0,0,-6.3153,-6.3181,-6.3417,-6.3427,-6.3266,-6.3382,-6.3401,-6.3458,-6.3552,-6.3563,-6.3486,-6.3481,-6.3636,-6.3653,-6.367,-6.3838,-6.372,-6.3729,-6.3735,-6.411,-6.4116,-6.412,0,0,0,0,0,0,-6.3146,-6.3174,-6.3411,-6.3304,-6.3334,-6.3392,-6.3456,-6.3463,-6.3505,-6.3568,-6.3578,-6.3518,-6.3634,-6.3656,-6.378,-6.3843,-6.3734,-6.3743,-6.4105,-6.4112,-6.4118,-6.4172,0,0,0,0,0,0,-6.3137,-6.3171,-6.3224,-6.3306,-6.334,-6.3518,-6.346,-6.3469,-6.3522,-6.3518,-6.3601,-6.3611,-6.3633,-6.3765,-6.379,-6.3855,-6.375,-6.41,-6.4108,-6.4116,-6.4165,-6.418,-6.4192,0,0,0,0,0,-6.3125,-6.3231,-6.3226,-6.3255,-6.3407,-6.3521,-6.3541,-6.3565,-6.3527,-6.3581,-6.3622,-6.3609,-6.3832,-6.3778,-6.3805,-6.3874,-6.4096,-6.4106,-6.4115,-6.4159,-6.4177,-6.4192,0,0,0,0,0,0,-6.3153,-6.3242,-6.3238,-6.3373,-6.344,-6.3519,-6.3586,-6.3583,-6.366,-6.3653,-6.3678,-6.3697,-6.3822,-6.386,-6.3798,-6.4013,-6.3959,-6.3975,-6.3983,-6.4,-6.4014,-6.4002,-6.3759,0,0,0,0,0,-6.3175,-6.3262,-6.3334,-6.3447,-6.3481,-6.3528,-6.3579,-6.3592,-6.3662,-6.3689,-6.374,-6.3807,-6.3893,-6.3949,-6.4031,-6.4171,-6.4189,-6.4232,-6.4246,-6.4257,-6.427,-6.4349,-6.437,-6.4152,-6.4152,-6.4152,0,0,-6.3221,-6.3281,-6.3333,-6.3454,-6.3508,-6.3597,-6.3552,-6.3647,-6.3714,-6.3703,-6.3824,-6.3863,-6.394,-6.4073,-6.4134,-6.4109,-6.4335,-6.4269,-6.4277,-6.4285,-6.4361,-6.4382,-6.44,-6.4159,-6.4157,-6.4156,0,0,-6.3351,-6.3404,-6.3505,-6.3561,-6.3643,-6.3674,-6.3698,-6.3779,-6.3805,-6.3927,-6.3922,-6.4001,-6.4147,-6.4204,-6.4251,-6.4406,-6.4398,-6.4432,-6.4504,-6.4581,-6.4598,-6.4613,-6.467,-6.469,-6.4445,-6.4445,-6.4446,0,-6.3398,-6.3533,-6.3557,-6.3655,-6.3709,-6.3707,-6.381,-6.3861,-6.3966,-6.4003,-6.3974,-6.4161,-6.4212,-6.4359,-6.4397,-6.4436,-6.4465,-6.4423,-6.4593,-6.4609,-6.4624,-6.4678,-6.4699,-6.4449,-6.4449,-6.4448,-6.4448,0,-6.3587,-6.3681,-6.3752,-6.3856,-6.3918,-6.4017,-6.4058,-6.4118,-6.4126,-6.4161,-6.4286,-6.4348,-6.4444,-6.448,-6.4488,-6.4629,-6.4612,-6.4588,-6.4535,-6.4648,-6.47,-6.472,-6.4455,-6.4453,-6.4452,-6.4451,0,0,-6.3737,-6.3855,-6.3881,-6.3929,-6.4021,-6.4094,-6.4194,-6.429,-6.4342,-6.4415,-6.45,-6.4626,-6.4606,-6.466,-6.4675,-6.4742,-6.4864,-6.471,-6.4713,-6.4738,-6.5025,-6.5043,-6.5067,-6.4859,-6.4863,-6.4866,-6.5019,0,-6.3877,-6.4056,-6.4083,-6.424,-6.4328,-6.4328,-6.4416,-6.4482,-6.4518,-6.4597,-6.4636,-6.4726,-6.4691,-6.4725,-6.4791,-6.4835,-6.4922,-6.4824,-6.4938,-6.4942,-6.492,-6.5094,-6.5112,-6.5254,-6.504,-6.5043,-6.5045,0,-6.4064,-6.4144,-6.4311,-6.4394,-6.4432,-6.451,-6.4602,-6.4678,-6.4754,-6.4775,-6.4838,-6.4845,-6.4949,-6.4893,-6.5038,-6.4971,-6.5019,-6.5048,-6.5054,-6.5066,-6.5001,-6.5111,-6.53,-6.5321,-6.5077,-6.5075,-6.5072,0,-6.4158,-6.4308,-6.4428,-6.4469,-6.4568,-6.4624,-6.4668,-6.474,-6.4797,-6.4877,-6.4914,-6.5004,-6.5054,-6.5124,-6.5156,-6.5111,-6.53,-6.5245,-6.5321,-6.532,-6.536,-6.5357,-6.556,-6.539,-6.539,-6.539,-6.5389,0,-6.4312,-6.4414,-6.4472,-6.4546,-6.4661,-6.4692,-6.4805,-6.4847,-6.4912,-6.4995,-6.5,-6.5077,-6.5114,-6.5197,-6.5222,-6.534,-6.5362,-6.5382,-6.5388,-6.5382,-6.538,-6.5414,-6.5406,-6.5395,-6.5394,-6.5393,-6.5392,0,-6.4437,-6.4479,-6.4611,-6.4695,-6.4719,-6.48,-6.4873,-6.4945,-6.4981,-6.5085,-6.5111,-6.5168,-6.5266,-6.5305,-6.5424,-6.5442,-6.5578,-6.5575,-6.5553,-6.5554,-6.5629,-6.5622,-6.5861,-6.5895,-6.5702,-6.5704,-6.5706,0,-6.4532,-6.4611,-6.4705,-6.4762,-6.4808,-6.4898,-6.4957,-6.4991,-6.5052,-6.5147,-6.5208,-6.5306,-6.5387,-6.5544,-6.5595,-6.5687,-6.5688,-6.5765,-6.5701,-6.5694,-6.569,-6.5686,-6.5694,-6.5777,-6.5779,-6.578,-6.5782,0,-6.4698,-6.4716,-6.4801,-6.4895,-6.4966,-6.5041,-6.5114,-6.516,-6.5205,-6.5274,-6.5376,-6.5439,-6.5563,-6.5661,-6.5756,-6.5801,-6.58,-6.5802,-6.5825,-6.582,-6.5804,-6.5815,-6.5586,-6.5796,-6.5795,-6.5794,-6.5793,-6.5792,-6.4812,-6.4883,-6.4962,-6.5057,-6.5117,-6.5186,-6.5259,-6.5305,-6.5391,-6.5496,-6.551,-6.562,-6.5696,-6.5824,-6.5874,-6.596,-6.5939,-6.5972,-6.598,-6.5988,-6.5994,-6.5791,-6.5977,-6.5976,-6.5976,-6.5976,-6.5976,0,-6.4979,-6.503,-6.5118,-6.5222,-6.5297,-6.5291,-6.5373,-6.5437,-6.5533,-6.5605,-6.5686,-6.5804,-6.59,-6.596,-6.6057,-6.6115,-6.6117,-6.6139,-6.6135,-6.6146,-6.6005,-6.5977,-6.6136,-6.6136,-6.6136,-6.6136,-6.6136,-6.6136,-6.5075,-6.5196,-6.5224,-6.5376,-6.5426,-6.5535,-6.5582,-6.5647,-6.5704,-6.5837,-6.5918,-6.5957,-6.6025,-6.6127,-6.6216,-6.6231,-6.6267,-6.6291,-6.6305,-6.6172,-6.6156,-6.614,-6.6113,-6.6298,-6.6298,-6.6438,-6.644,-6.6441]}]]